Regional Weather Roundup
Issued by NWS

Home | Current Version | Previous Version | Text Only | Print | Product List | Glossary Off
Versions: 1 2 3 4 5 6 7 8 9 10 11 12 13 14 15 16 17 18 19 20 21 22 23 24 25 26 27

000
ASUS45 KBOU 232007
RWRCO

WEATHER ROUNDUP FOR COLORADO
NATIONAL WEATHER SERVICE DENVER/BOULDER CO
200 PM MDT TUE MAY 23 2017

NOTE: "FAIR" INDICATES FEW OR NO CLOUDS BELOW 12000 FEET WITH NO
SIGNIFICANT WEATHER AND/OR OBSTRUCTIONS TO VISIBILITY.

COZ001>005-013-030-031-232100-
...NORTHWEST COLORADO...

CITY           SKY/WX    TMP DP  RH WIND       PRES   REMARKS
CRAIG          FAIR      56  31  38 VRB3      30.26F
HAYDEN         FAIR      52  30  43 SW7       30.27F
MEEKER         FAIR      62  26  25 VRB6      30.24F
RABBIT EARS PA CLOUDY    32  30  93 W6        30.35S WCI  26
STEAMBOAT SPGS FAIR      51  32  49 W6G18     30.26S
WALDEN           N/A     50  27  40 NW18G26   30.27F
$$

COZ006>008-011-232100-
...WEST CENTRAL VALLEYS...

CITY           SKY/WX    TMP DP  RH WIND       PRES   REMARKS
GRAND JUNCTION FAIR      67  28  23 W7        30.17F
MONTROSE       FAIR      62  21  20 CALM      30.23F
EAGLE          MOSUNNY   57  28  33 CALM      30.25F
RIFLE          FAIR      67  17  14 N14G23    30.19F
DELTA          FAIR      71  18  13 SE16G23   30.16F
NUCLA          FAIR      68   9  10 N10G16    30.23F
$$

COZ017>023-064>068-232100-
...SOUTHWEST COLORADO...

CITY           SKY/WX    TMP DP  RH WIND       PRES   REMARKS
DURANGO        FAIR      70  14  11 SW12G18   30.11F
CORTEZ         FAIR      69  20  15 NW12      30.18F
PAGOSA SPRINGS FAIR      64   3   9 NW6       30.16F
TELLURIDE      NOT AVBL
WOLF CREEK PAS FAIR      37   9  30 NW5       30.41S
$$

COZ009-010-012-014-032>034-037-058>063-232100-
...CENTRAL COLORADO...

CITY           SKY/WX    TMP DP  RH WIND       PRES   REMARKS
ASPEN          FAIR      53  23  31 N8G18     30.24F
BUENA VISTA    FAIR      55  17  22 N25G31    30.20F
COPPER MTN     PTSUNNY   34  23  64 NW22G28   30.36S HAZE    WCI  22
BERTHOUD PASS  CLOUDY    23  12  63 N17G37    30.32S WCI   9
COTTONWOOD PAS FAIR      52  12  20 NW7       30.28S
GUNNISON       FAIR      57  13  17 NW12G26   30.22S
KREMMLING      CLOUDY    54  28  37 W6        30.27S
LEADVILLE      PTSUNNY   40  21  46 N13G22    30.28F
MONARCH PASS   FAIR      36  10  35 N18G28    30.46S
SALIDA         FAIR      61  17  18 N14       30.25F
SUNLIGHT       FAIR      37  14  38 NW7       30.40F
WILKERSON PASS CLOUDY    34  23  64 CALM      30.33S
$$

COZ069>075-232100-
...SAN LUIS VALLEY/SANGRE DE CRISTO MOUNTAINS...

CITY           SKY/WX    TMP DP  RH WIND       PRES   REMARKS
ALAMOSA        FAIR      62  19  19 N13G28    30.16F
DEL NORTE      FAIR      59  19  20 W9G21     30.19F
LA VETA PASS   CLOUDY    39  30  70 NW5       30.38S
SAGUACHE       FAIR      61  19  20 N14G26    30.17F
$$

COZ035-036-038>040-232100-
...NORTHERN COLORADO FRONT RANGE...

CITY           SKY/WX    TMP DP  RH WIND       PRES   REMARKS
DENVER INTL AP PTSUNNY   58  33  39 N15       30.15F
DMNS CITY PARK   N/A     59  30  33 N12G17    30.15S
AURORA         NOT AVBL
FRONT RANGE AP NOT AVBL
ERIE MUNI ARPT CLOUDY    60  29  30 NE9       30.14F
BOULDER MUN AP CLOUDY    59  28  31 E8        30.14F
CENTENNIAL     PTSUNNY   55  33  43 N9        30.17F
BROOMFIELD     NOT AVBL
FORT COLLINS   FAIR      61  32  33 N17G25    30.14F
LONGMONT       PTSUNNY   65  31  28 N14G21    30.15F
$$

COZ041-046-047-076>085-087-088-232100-
...PIKES PEAK/PALMER DIVIDE AND SOUTHERN FOOTHILLS...

CITY           SKY/WX    TMP DP  RH WIND       PRES   REMARKS
COLO. SPRINGS  FAIR      60  28  29 N23G29    30.16F
A. F. ACADEMY  FAIR      56  28  35 N21G26    30.16F
SCHRIEVER AFB  FAIR      55  27  34 N20G32    30.16F
CHEYENNE MTN   PTSUNNY   52  27  37 N14G22    30.12F
ELLICOTT       FAIR     N/A N/A N/A N18G30    30.15F
FALCON         PTSUNNY   52  28  40 N14G23    30.20S
FORT CARSON    FAIR      59  28  30 N17G25    30.14F
LIMON          CLOUDY    52  34  50 N23G32    30.14F
MONUMENT HILL  PTSUNNY   50  32  50 N15G21    30.21F
CANON CITY     NOT AVBL
WALSENBURG     MOCLDY    59  34  38 NE7       30.16F
TRINIDAD       PTSUNNY   59  33  37 NE16G25   30.16F
$$

COZ042>045-048>051-090-091-232100-
...NORTHEAST COLORADO...

CITY           SKY/WX    TMP DP  RH WIND       PRES   REMARKS
GREELEY ARPT   FAIR      62  37  39 N17G26    30.14F
AKRON          CLOUDY    59  34  39 N22G32    30.11F
BURLINGTON     PTSUNNY   59  38  45 N18G28    30.08F
WRAY           CLOUDY    57  34  41 N21G28    30.08S
YUMA           CLOUDY    52  27  37 NW12G21   30.09F
STERLING       CLOUDY    59  39  47 N13       30.10S
HOLYOKE        NOT AVBL
FORT MORGAN    CLOUDY    58  33  39 N18G25    30.14F
$$

COZ086-089-092>099-232100-
...SOUTHEAST COLORADO...

CITY           SKY/WX    TMP DP  RH WIND       PRES   REMARKS
PUEBLO         CLOUDY    64  29  26 N17G24    30.12F
LA JUNTA       CLOUDY    64  31  28 N20G31    30.12F
LAMAR          CLOUDY    63  33  32 N18       30.06F
SPRINGFIELD      N/A     58  32  37 N25G33    30.09F
$$




USA.gov is the U.S. government's official web portal to all federal, state and local government web resources and services.